Regional Weather Roundup
Issued by NWS

Home | Current Version | Previous Version | Text Only | Print | Product List | Glossary On
Versions: 1 2 3 4 5 6 7 8 9 10 11 12 13 14 15 16 17 18 19 20 21 22 23 24 25 26 27 28 29 30 31 32 33 34 35 36 37 38 39 40 41 42 43 44 45 46 47 48 49 50
000
ASHW40 PHFO 060310
RWRHI

WEATHER ROUNDUP FOR HAWAII
NATIONAL WEATHER SERVICE HONOLULU HI
500 PM HST TUE MAY 05 2015

THIS IS AN AUTOMATED REPORT THAT HAS NOT BEEN QUALITY CONTROLLED.

NOTE..."FAIR" INDICATES FEW OR NO CLOUDS BELOW 12,000 FEET WITH NO
SIGNIFICANT WEATHER AND/OR OBSTRUCTIONS TO VISIBILITY.

* - THESE SITES REPORT LIMITED FIELDS

HIZ001>004-060400-
KAUAI-NIIHAU-

CITY           SKY/WX    TMP DP  RH WIND       PRES   REMARKS
LIHUE APT      PTSUNNY   78  64  61 E15       30.05F
PORT ALLEN*      N/A     81 N/A N/A E21G26      N/A
POIPU*           N/A     81 N/A N/A NE10G20     N/A
PRINCEVILLE*     N/A     77 N/A N/A MISG        N/A
KOKOLE POINT*  NOT AVBL
MOLOAA DAIRY*  NOT AVBL
WAIMEA HTS*    NOT AVBL
PUU OPAE*      NOT AVBL
PUU LUA*       NOT AVBL
MAKAHA RIDGE*  NOT AVBL
$$

HIZ005>011-060400-
OAHU-

CITY           SKY/WX    TMP DP  RH WIND       PRES   REMARKS
HONOLULU       MOSUNNY   78  61  55 E20G26    30.02F
KALAELOA       SUNNY     81  60  48 E7G18     30.03S
KANEOHE MCB    CLOUDY    78  64  61 NE12      30.03S
WHEELER FIELD  FAIR      77  61  56 NE16      30.02
BELLOWS*       NOT AVBL
KAHUKU*        NOT AVBL
WHEELER*       NOT AVBL
WAIANAE HARBOR NOT AVBL
DILLINGHAM*      N/A     84  57  39 MISG        N/A
KAHUKU TRN*      N/A     75  63  64 E10G24      N/A
KAWAILOA*        N/A     73  63  68 E9G24       N/A
KII*             N/A     79  66  65 E17         N/A
MAKUA RANGE*     N/A     84  57  39 E8G17       N/A
OAHU FOREST NW NOT AVBL
SCHOFIELD BRK*   N/A     75  57  53 MISG        N/A
SCHOFIELD S*   NOT AVBL
WAIANAE VLY*   NOT AVBL
KUAOKALA*      NOT AVBL
HONOULIUULI*   NOT AVBL
MOKUOLOE IS*   NOT AVBL
PALEHUA*       NOT AVBL
WAIAWA PHB*    NOT AVBL
$$

HIZ012>013-060400-
MOLOKAI-

CITY           SKY/WX    TMP DP  RH WIND       PRES   REMARKS
MOLOKAI AIRPT  MOSUNNY   77  61  57 NE18G30   30.02S
KALAUPAPA      NOT AVBL
MAKAPULAPAI*   NOT AVBL
MOLOKAI 1*     NOT AVBL
PUU ALII*      NOT AVBL
$$

HIZ016-060400-
KAHOOLAWE-

CITY           SKY/WX    TMP DP  RH WIND       PRES   REMARKS
KAHOOLAWE*     NOT AVBL
HAKIOAWA*      NOT AVBL
HONOKANAIA*      N/A     79  63  57 NE18G32   30.02S
KANELOA*         N/A     77  64  65 MISG      29.24F
KEALIALALO*    NOT AVBL
LUA MAKIKA*    NOT AVBL
$$

HIZ014>015-060400-
LANAI-

CITY           SKY/WX    TMP DP  RH WIND       PRES   REMARKS
LANAI CITY     FAIR      75  59  57 NE26      30.04F
LANAI 1*       NOT AVBL
$$

HIZ017>028-060400-
MAUI-

CITY           SKY/WX    TMP DP  RH WIND       PRES   REMARKS
KAHULUI        SUNNY     78  62  57 NE21G31   30.01F
KAPALUA-W MAUI MOSUNNY   77  59  53 NE17G32   30.02S
HANA AIRPORT   PTSUNNY   75  64  69 E8        30.08S
HANA*          NOT AVBL
HALEAKALA SUMM   N/A     55  14  19 E10         N/A
MAALAEA BAY*   NOT AVBL
HALEAKALA*     NOT AVBL
KAUPO GAP*     NOT AVBL
KULA 1*          N/A     52  52 100 N3          N/A
$$

HIZ023>026-060400-
BIG ISLAND OF HAWAII COAST AND LOWER SLOPES-

CITY           SKY/WX    TMP DP  RH WIND       PRES   REMARKS
KAILUA KONA    SUNNY     88  57  34 N23       29.95F
HILO           CLOUDY    75  64  68 CALM      30.04F
HONOKAA*       NOT AVBL
KAWAIHAE MWT*  NOT AVBL
KAWAIHAE*        N/A     81 N/A N/A W10         N/A
SOUTH POINT*   NOT AVBL
UPOLU AIRPORT* NOT AVBL
KAMUELA*       MOCLDY    70  57  64 NE21      30.10S
HAKALAU*         N/A     50  49  98 NE3         N/A
KALOKO-HONOKO* NOT AVBL
PALI 2*          N/A     64  54  68 N21G30      N/A
KEALAKOMO*       N/A     79  61  53 NE17G26     N/A
KAUPULEHU*     NOT AVBL
KAPAPALA*        N/A     71  56  58 NE8G18      N/A
LOWER KAHUKU*  NOT AVBL
PUHE CS*       NOT AVBL
PUHO CS*       NOT AVBL
PTA KEAMUKU*     N/A     64  50  59 CALM        N/A
WAIKOLOA*      NOT AVBL
$$

HIZ027>028-060400-
BIG ISLAND OF HAWAII INTERIOR AND SUMMMITS-

CITY           SKY/WX    TMP DP  RH WIND       PRES   REMARKS
BRADSHAW FIELD PTSUNNY   61  54  78 W7        30.28
MK VISITOR CEN NOT AVBL
MAUNA KEA*       N/A     45 -13   8 SE3         N/A
MAUNA LOA*       N/A    N/A N/A N/A MISG        N/A
MAUNA LOA 1*   NOT AVBL
PTA KIPUKA*      N/A     59  54  82 NW6         N/A
PTA RANGE 17*    N/A     61  55  82 W7G13       N/A
PTA WEST*        N/A     72  59  64 NW6G15      N/A
NENE CABIN*    NOT AVBL
AHUMOA*        NOT AVBL
PTA PORTABLE*  NOT AVBL
PUU MALI*        N/A     57  52  82 N5G12       N/A
$$

HIC003-060400-
NORTHWEST ISLANDS-

CITY           SKY/WX    TMP DP  RH WIND       PRES   REMARKS
MIDWAY ISLAND  PTSUNNY  N/A N/A N/A NE10      30.16S
MIDWAY NOS*    NOT AVBL
FRENCH FRIGATE NOT AVBL
$$

PHZ110>124-180-060400-
BUOY REPORTS

STATION/POSITION TIME  TEMP    WIND        PRES    WAVE   SWELL
                       AIR SEA DIR/SP/G            HT/PER HT/DIR
                 (UTC) (F)     (DEG/KT/KT) (MB)    (FT/S) (FT/D)
BUOY 51001       NOT AVBL
BUOY 51101       0300   76 77  110/ 14/ 16 1017.6F   6/ 8   5/110
BUOY 51100       NOT AVBL
BUOY 51002       0300   78 79   80/ 19/ 25 1013.5R  10/17   5/150
BUOY 51003       0200   78 79  110/ 12/ 14 1015.2F   8/ 8   7
BUOY 51004       0246   74 78   70/ 23/ 27 1014.8F   9/ 8   5/130
BARBERS PT BUOY  NOT AVBL
WAIMEA BAY BUOY  0300      77                N/A     5/13   3/360
KAILUA BAY BUOY  0300      78                N/A     8/ 9   2/ 10
LANAI BUOY       NOT AVBL
BARBERS PT 2     0300      77                N/A     5/18   2/190
PAUWELA MAUI     0300      76                N/A     7/13   2
HILO             0300      77                N/A     8/ 8   3/360
KANEOHE BAY BUOY 0300      76                N/A     7/13   3/360
HANALEI KAUAI    0300      78                N/A     9/ 8   3/ 10
KAHULUI HARBOR   0300           50/ 16/ 22 1016.5S
HONOLULU HARBOR  0300           30/  4/ 10 1016.7F
KILO NALU        NOT AVBL
HILO HARBOR      0300          350/  5/  5 1017.0F
MOKUOLOE         0300   77 77   70/ 13/ 16 1017.7S
NAWILIWILI       0300   76 79   60/ 12/ 17 1017.2F
WHOTS BUOY       NOT AVBL
BUOY 51028       NOT AVBL
$$

......................KEY........................................
  SKY/WX - SKY CONDITIONS/PRESENT WEATHER
  TMP    - TEMPERATURE IN FAHRENHEIT
  DWPT   - DEWPOINT IN FAHRENHEIT
  RH     - RELATIVE HUMIDITY IN PERCENT
  WIND   - DIRECTION AND SPEED /MPH FOR ISLANDS...KTS FOR BUOYS/
  PRES   - MEAN SEA LEVEL PRESSURE IN INCHES OF HG
  VSB    - VISIBILITY IN MILES
  HX     - HEAT INDEX
  WCI    - WIND CHILL INDEX
  VRB    - VARIABLE WIND DIRECTION
  N/A    - NOT AVAILABLE


USA.gov is the U.S. government's official web portal to all federal, state and local government web resources and services.